Flag for France Weather past 2 weeks in Brest, France

Now
63 °F

Fog.


Feels Like: 63 °F
Forecast: 59 / 70 °F
Wind: 7 mph from South

Location: Brest Airport

Current Time: Jul 1, 2015 at 4:20:44 AM

Latest Report: Jul 1, 2015 at 4:00 AM


Visibility: 0 mi

Pressure: 29.83 "Hg

Humidity: 94%

Dew point: 61 °F

Location of BrestLocation

Historic Weather in Brest — Graph

°F

Brest temperature yesterday

Maximum temperature yesterday: 90 °F (at 4:00 PM)
Minimum temperature yesterday: 61 °F (at 2:00 AM)
Average temperature yesterday: 75 °F

Past Weeks' High & Low Weather Summary

 TemperatureHumidityPressure
High90 °F (Jun 30, 4:00 PM)100% (Jun 16, 3:30 AM)30.39 "Hg (Jun 16, 3:30 AM)
Low48 °F (Jun 17, 6:30 AM)33% (Jun 30, 4:00 PM)29.83 "Hg (Jun 30, 6:30 PM)
Average62 °F77%30.17 "Hg
* Reported Jun 16 3:00 AM — Jul 1 3:00 AM, Brest, Weather by CustomWeather, © 2015

Note: Actual official high and low records may vary slightly from our data, if they occured in-between our weather recording intervals... More about our weather records

Advertising

Brest weather history for previous 24 hours

 ConditionsComfort  
Time TempWeatherWind HumidityBarometerVisibility
3:00 AM
Wed, Jul 1
63 °FFog.8 mph100%29.83 "Hg1 mi
2:30 AM64 °FFog.9 mph94%29.83 "Hg1 mi
2:00 AM64 °FClear.3 mph88%29.83 "Hg5 mi
1:30 AM64 °FClear.5 mph94%29.83 "Hg10 mi
1:00 AM66 °FClear.8 mph88%29.83 "Hg10 mi
12:30 AM66 °FClear.5 mph83%29.83 "Hg10 mi
12:00 AM68 °FClear.6 mph83%29.83 "Hg10 mi
11:30 PM
Tue, Jun 30
68 °FClear.No wind83%29.83 "Hg10 mi
11:00 PM70 °FSunny.3 mph73%29.83 "Hg10 mi
10:30 PM73 °FSunny.5 mph65%29.83 "Hg10 mi
10:00 PM75 °FSunny.5 mph61%29.83 "Hg10 mi
9:30 PM77 °FPassing clouds.6 mph57%29.83 "HgN/A
9:00 PM79 °FSunny.8 mph54%29.83 "Hg10 mi
8:30 PM81 °FSunny.9 mph51%29.83 "Hg10 mi
8:00 PM82 °FSunny.12 mph48%29.83 "Hg10 mi
7:00 PM90 °FSunny.17 mph36%29.83 "Hg10 mi
6:30 PM90 °FPassing clouds.17 mph36%29.83 "HgN/A
6:00 PM90 °FSunny.18 mph33%29.86 "Hg10 mi
5:00 PM90 °FPassing clouds.17 mph33%29.86 "HgN/A
4:30 PM90 °FSunny.16 mph33%29.86 "Hg10 mi
4:00 PM90 °FPassing clouds.15 mph33%29.89 "HgN/A
3:00 PM88 °FPassing clouds.13 mph38%29.89 "HgN/A
2:30 PM88 °FPassing clouds.10 mph38%29.92 "HgN/A
2:00 PM88 °FSunny.12 mph38%29.92 "Hg10 mi
1:30 PM86 °FPassing clouds.13 mph40%29.92 "HgN/A
1:00 PM86 °FPassing clouds.13 mph40%29.92 "HgN/A
12:30 PM84 °FSunny.14 mph40%29.95 "Hg10 mi
12:00 PM84 °FPassing clouds.14 mph43%29.95 "HgN/A
11:30 AM81 °FPassing clouds.14 mph48%29.95 "HgN/A
11:00 AM81 °FSunny.14 mph48%29.95 "Hg10 mi
10:30 AM79 °FPassing clouds.12 mph51%29.95 "HgN/A
10:00 AM77 °FSunny.13 mph54%29.98 "Hg10 mi
9:30 AM75 °FSunny.15 mph57%29.98 "Hg10 mi
9:00 AM73 °FSunny.13 mph61%29.98 "Hg10 mi
8:30 AM73 °FSunny.8 mph57%29.98 "Hg10 mi
8:00 AM72 °FSunny.9 mph61%29.98 "Hg10 mi
7:30 AM68 °FSunny.12 mph69%29.98 "Hg10 mi
7:00 AM64 °FClear.6 mph73%30.01 "Hg10 mi
6:30 AM64 °FClear.9 mph73%30.01 "Hg10 mi
6:00 AM63 °FClear.6 mph77%30.01 "Hg10 mi
5:00 AM63 °FClear.7 mph77%30.04 "Hg10 mi
4:30 AM63 °FClear.8 mph77%30.04 "Hg10 mi
4:00 AM63 °FClear.8 mph77%30.07 "Hg10 mi
Weather by CustomWeather, © 2015

See weather overviewHow to use our weather pages